CAPE
4 1 3 1 3 7 4 5 0 0 0 0 0 0 0 0 0 0 0 0 0 0 0 0 0 0 0 0 0 0 0 0 0 0 0 0 0 0 0 0 0 0 0
1 2 3 3 2 3 5 6 7 5 0 0 0 0 0 0 0 0 0 0 0 0 0 0 0 0 0 0 0 0 0 0 0 0 0 0 0 0 0 0 0 0 0
0 3 0 3 1 1 7 4 3 2 0 1 0 0 0 0 0 0 0 0 0 0 0 0 0 0 0 0 0 0 0 0 0 0 0 0 0 0 0 0 0 0 0
1 2 0 1 3 1 1 4 2 6 3 0 2 0 0 0 0 0 0 0 0 0 0 0 0 0 0 0 0 0 0 0 0 0 0 0 0 0 0 0 0 0 0
0 0 1 1 2 2 0 1 4 2 3 1 0 1 0 0 0 0 0 0 0 0 0 0 0 0 0 0 0 0 0 0 0 0 0 0 0 0 0 0 0 0 0
0 0 1 1 2 2 3 1 2 2 3 1 2 0 2 1 1 0 0 0 0 0 0 0 0 0 0 0 0 0 0 0 0 0 0 0 0 0 0 0 0 0 0
0 0 1 1 1 0 0 4 1 3 3 2 1 4 9 4 1 0 0 0 0 0 0 0 0 0 0 0 0 0 0 0 0 0 0 0 0 0 0 0 0 0 0
0 0 0 0 0 0 0 2 4 2 3 5 2 4 3 4 7 5 0 0 1 0 0 0 0 0 0 0 0 0 0 0 0 0 0 0 0 1 0 2 12 19 6
0 0 0 0 0 0 0 0 1 2 3 2 2 3 5 11 7 12 2 0 0 0 2 1 0 0 0 0 0 0 0 0 0 0 0 0 0 0 7 10 15 5 1
0 0 0 0 0 0 0 0 1 1 3 3 4 1 3 2 4 5 6 3 1 1 0 2 0 1 0 0 0 0 0 0 0 0 0 0 0 0 1 11 13 6 0
0 0 0 0 0 0 0 0 0 1 2 2 2 2 2 3 1 2 5 5 4 0 0 0 1 0 0 0 0 0 0 0 0 0 0 0 0 0 0 3 1 0 0
0 0 0 0 0 0 0 0 0 0 0 0 0 0 1 2 3 3 3 4 5 3 2 3 1 1 2 0 0 0 0 0 0 0 0 0 0 0 0 0 0 0 0
0 0 0 0 0 0 0 0 0 0 0 0 1 1 1 1 1 1 1 5 5 4 4 4 4 1 1 1 1 0 0 0 0 0 0 2 0 0 0 0 0 0 0
0 0 0 0 0 0 0 0 0 0 0 0 0 0 0 0 0 1 1 2 3 4 0 0 2 4 0 0 1 0 1 1 1 1 0 0 0 0 0 0 1 1 1
0 0 0 0 0 0 0 0 0 0 0 0 0 0 0 0 0 3 2 1 2 5 1 0 0 1 1 2 2 2 4 1 0 0 0 0 0 0 0 1 1 0 1
0 0 0 0 0 0 0 0 0 0 0 0 0 0 0 0 0 0 2 3 3 4 2 4 3 5 5 5 3 2 2 3 6 3 1 0 0 0 0 0 0 0 1
0 0 0 0 0 0 0 0 0 0 0 0 0 0 0 0 0 0 0 2 2 0 1 1 2 2 5 4 4 5 3 3 2 2 2 5 4 2 3 1 1 1 0
0 0 0 0 0 0 0 0 0 0 0 0 0 0 0 0 0 0 0 0 0 0 1 1 1 1 1 2 2 2 1 1 3 3 1 0 2 3 2 1 0 0 2
0 0 0 0 0 0 0 0 0 0 0 0 0 0 0 0 0 0 0 0 1 1 0 0 0 0 1 0 0 0 1 1 1 1 2 3 2 2 1 1 2 3 3
0 0 0 0 0 0 0 0 0 0 0 0 0 0 0 0 0 0 0 0 0 0 0 0 0 0 0 0 0 0 0 0 0 0 0 0 0 1 1 1 1 0 1
0 0 0 0 0 0 0 0 0 0 0 0 0 0 1 0 0 0 0 0 0 0 0 0 0 0 0 0 0 0 0 0 0 0 0 0 0 0 0 1 1 1 1
0 0 0 0 0 0 0 0 0 0 0 0 0 0 0 0 0 0 0 0 0 0 0 0 0 0 0 0 0 0 0 0 0 0 0 0 0 0 0 0 0 0 0
0 0 0 0 0 0 0 0 0 0 0 0 0 0 0 0 0 0 0 0 0 0 0 0 0 0 0 0 0 0 0 0 0 0 0 0 0 0 0 0 0 0 0
0 0 0 0 0 0 0 0 0 0 0 0 0 0 0 0 0 0 0 0 0 0 0 0 0 0 0 0 0 0 0 0 0 0 0 0 0 0 0 0 0 0 0
0 0 0 0 0 0 0 0 0 0 0 0 0 0 0 0 0 0 0 0 0 0 0 0 0 0 0 0 0 0 0 0 0 0 0 0 0 0 0 0 0 0 0
0 0 0 0 0 0 0 0 0 0 0 0 0 0 0 0 0 0 0 0 0 0 0 0 0 0 0 0 0 0 0 0 0 0 0 0 0 0 0 0 0 0 0
CIN
0 0 0 0 0 0 0 0 0 -2 -1 0 0 0 0 0 0 0 0 0 0 0 0 0 0 0 0 0 0 0 0 0 0 0 0 0 0 0 0 0 0 0 0
0 0 0 0 0 0 0 0 0 -25 -2 0 0 0 0 0 0 0 0 0 0 0 0 0 0 0 0 0 0 0 0 0 0 0 0 0 0 0 0 0 0 0 0
0 0 0 0 0 0 0 0 0 0 0 -1 0 0 0 0 0 0 0 0 0 0 0 0 0 0 0 0 0 0 0 0 0 0 0 0 0 0 0 0 0 0 0
0 0 0 0 0 0 0 0 0 0 0 0 -1 0 0 0 0 0 0 0 0 0 0 0 0 0 0 0 0 0 0 0 0 0 0 0 0 0 0 0 0 0 0
0 0 0 0 0 0 0 0 0 0 0 0 -1 -2 -1 0 0 0 0 0 0 0 0 0 0 0 0 0 0 0 0 0 0 0 0 0 0 0 0 0 0 0 0
0 0 0 0 0 0 0 0 0 0 0 0 0 0 -1 -1 0 0 0 0 0 0 0 0 0 0 0 0 0 0 0 0 0 0 0 0 0 0 0 0 0 0 0
0 0 0 0 0 0 0 0 0 0 0 0 0 0 0 0 0 0 0 0 0 0 0 0 0 0 0 0 0 0 0 0 0 0 0 0 0 0 0 0 0 0 0
0 0 0 0 0 0 0 0 0 0 0 0 0 0 0 0 0 0 0 0 0 -1 0 0 0 0 0 0 0 0 0 0 0 0 0 0 0 -11 0 -42 -54 -57 -47
0 0 0 0 0 0 0 0 0 0 0 0 0 0 0 0 0 0 0 0 0 0 -2 -4 0 0 0 0 0 0 0 0 0 0 0 0 0 0 -12 -37 -36 -36 -5
0 0 0 0 0 0 0 0 0 0 0 0 0 0 0 0 0 0 0 0 0 0 0 -5 0 -1 0 0 0 0 0 0 0 0 0 0 0 0 -19 -30 -57 -30 0
0 0 0 0 0 0 0 0 0 0 0 0 0 0 0 0 0 0 0 0 0 0 0 0 0 0 0 0 0 0 0 0 0 0 0 0 0 0 0 -77 -37 0 0
0 0 0 0 0 0 0 0 0 0 0 0 0 0 0 0 0 0 0 0 0 0 0 0 0 0 0 0 0 0 0 0 -2 0 0 0 0 0 0 0 0 0 0
0 0 0 0 0 0 0 0 0 0 0 0 0 0 0 0 0 0 0 0 0 0 0 0 0 0 0 0 0 0 0 0 0 0 0 0 0 0 0 0 0 0 0
0 0 0 0 0 0 0 0 0 0 0 0 0 0 0 0 0 0 0 0 0 0 0 0 0 0 0 0 0 0 0 0 -1 0 0 0 -1 0 0 0 0 0 0
0 0 0 0 0 0 0 0 0 0 0 0 0 0 0 0 -1 0 0 0 0 0 0 0 0 0 0 0 0 0 0 0 0 0 0 0 0 0 0 0 0 0 0
0 0 0 0 0 0 0 0 0 0 0 0 -1 -2 0 -3 -1 -1 0 0 0 0 0 0 0 0 0 0 0 0 0 0 0 0 0 0 0 0 0 0 0 0 0
0 0 0 0 0 0 0 0 0 0 0 0 0 0 0 0 0 0 0 0 0 0 0 0 0 0 0 0 0 0 0 0 0 0 0 0 0 0 0 0 0 0 0
0 0 0 0 0 0 0 0 0 0 0 0 0 0 0 0 0 0 0 0 0 0 0 0 0 0 0 0 0 0 0 0 0 0 0 0 0 0 0 0 0 0 0
0 0 0 0 0 0 0 0 0 0 0 0 0 0 0 0 0 0 0 0 0 0 0 0 0 0 0 0 0 0 0 0 0 0 0 0 0 0 0 0 0 0 0
0 0 0 0 0 0 0 0 0 0 0 0 0 0 0 0 0 0 0 0 0 0 0 0 0 0 0 0 0 0 0 0 0 0 0 0 0 0 0 0 0 0 0
0 0 0 0 0 0 0 0 0 0 0 0 0 0 0 0 0 0 0 0 0 0 0 0 0 0 0 0 0 0 0 0 0 0 0 0 0 0 0 0 0 0 0
0 0 0 0 0 0 0 0 0 0 0 0 0 0 0 0 0 0 0 0 0 0 0 0 0 0 0 0 0 0 0 0 0 0 0 0 0 0 0 0 0 0 0
0 0 0 0 0 0 0 0 0 0 0 0 0 0 0 0 0 0 0 0 0 0 0 0 0 0 0 0 0 0 0 0 0 0 0 0 0 0 0 0 0 0 0
0 0 0 -3 -4 0 0 0 0 0 0 0 0 0 0 0 0 0 0 0 0 0 0 0 0 0 0 0 0 0 0 0 0 0 0 0 0 0 0 0 0 0 0
0 0 0 0 0 0 0 0 0 0 0 0 0 0 0 0 0 0 0 0 0 0 0 0 0 0 0 0 0 0 0 0 0 0 0 0 0 0 0 0 0 0 0
0 0 0 0 0 0 0 0 0 0 0 0 0 0 0 0 0 0 0 0 0 0 0 0 0 0 0 0 0 0 0 0 0 0 0 0 0 0 0 0 0 0 0
Wind_Speed
31 32 31 36 33 30 34 33 35 37 38 36 35 33 32 32 32 31 31 30 30 28 26 25 24 21 20 17 17 18 18 18 18 13 10 8 7 8 7 7 6 6 6
30 31 31 27 32 32 33 36 34 36 38 38 36 36 34 33 32 32 31 30 30 30 28 27 25 23 22 20 18 19 18 18 19 14 12 11 9 9 9 8 9 9 9
28 29 29 28 30 30 32 31 35 34 37 40 39 38 36 34 33 33 32 31 31 30 28 28 26 24 25 25 23 21 20 19 19 19 17 13 12 10 10 10 10 11 12
27 27 26 28 28 33 34 32 31 35 38 37 39 39 37 35 35 34 33 32 31 31 30 28 27 27 26 25 25 24 22 21 20 21 16 14 14 14 12 13 15 14 14
26 25 25 29 29 26 28 33 33 33 34 38 35 38 39 39 37 36 35 35 34 33 32 30 29 27 26 26 26 26 24 23 22 22 21 20 16 16 15 15 16 17 17
23 24 24 25 25 24 27 28 31 32 34 29 34 36 41 39 40 40 37 37 36 34 32 31 29 28 28 26 26 25 25 26 26 25 24 21 18 17 16 17 18 18 20
23 24 24 24 24 25 25 25 23 26 28 28 26 27 27 32 34 37 39 39 40 38 36 34 33 31 28 30 29 29 29 27 25 24 24 23 21 19 19 19 19 20 21
23 23 23 23 23 23 21 21 22 19 23 20 22 21 24 28 31 34 39 40 38 39 38 37 34 32 31 30 30 30 31 29 29 27 26 26 24 22 21 21 21 21 22
23 23 22 20 21 20 21 21 21 19 19 16 18 16 20 20 23 31 38 40 43 40 39 38 37 35 33 31 32 33 34 35 32 31 30 29 27 24 23 23 23 22 24
23 25 23 21 20 19 19 18 17 17 18 17 17 16 20 24 24 26 32 32 38 42 43 40 37 36 35 34 34 35 37 36 35 34 35 34 32 30 26 25 25 25 26
25 25 24 24 22 20 20 18 18 18 17 18 18 19 21 24 26 24 26 29 34 35 37 40 40 41 39 37 36 37 38 35 35 36 37 38 36 34 31 29 28 27 28
25 25 25 25 24 23 22 20 21 20 20 20 20 21 22 24 25 26 26 27 29 34 35 36 37 39 43 43 39 40 38 36 37 38 39 39 38 37 36 33 31 31 30
27 26 25 26 25 24 24 25 25 25 25 24 23 24 24 25 25 25 25 27 27 28 29 34 35 36 39 42 46 44 41 42 42 43 42 41 39 37 36 38 37 35 35
27 27 26 26 26 24 24 24 25 25 26 27 27 27 26 26 26 27 27 27 28 27 26 27 26 29 34 37 40 41 45 43 43 45 43 43 39 36 37 37 36 36 38
28 27 26 26 26 26 24 24 24 24 24 26 28 27 29 29 28 27 26 27 28 26 25 25 26 27 28 30 33 38 41 43 47 46 45 43 41 37 39 37 38 38 40
27 26 26 25 26 25 25 25 23 23 22 21 23 24 25 26 27 28 27 26 25 23 23 23 24 24 26 27 29 30 31 35 39 42 44 44 45 43 40 36 38 41 43
26 26 25 25 25 26 26 26 27 26 24 24 23 23 24 25 26 26 25 24 23 23 22 22 22 24 24 25 25 26 27 28 28 29 34 40 40 40 41 40 42 41 39
25 25 25 25 25 25 26 26 27 28 28 27 26 25 25 24 25 24 23 22 24 24 25 25 25 24 25 25 24 25 25 25 26 27 27 27 28 30 32 33 30 32 33
25 25 24 24 25 26 26 26 27 28 28 28 28 27 27 27 25 23 22 23 24 25 25 25 23 25 25 25 25 24 23 22 23 22 22 22 22 21 22 23 22 19 18
24 25 25 26 26 26 27 27 27 28 29 29 29 28 29 28 27 26 25 24 23 23 24 24 23 22 23 23 23 23 23 23 23 22 21 19 19 18 18 18 18 18 17
23 25 25 26 28 27 28 28 29 29 29 29 29 28 29 28 28 26 26 25 24 24 25 25 24 23 23 23 23 23 22 22 23 22 22 21 20 19 18 19 19 19 20
23 25 26 27 28 29 30 30 30 30 30 31 30 29 29 28 28 28 27 26 26 25 25 25 24 25 24 23 23 24 24 24 23 23 22 22 22 22 22 22 22 22 22
22 24 26 27 28 30 30 31 32 32 33 31 31 30 29 29 29 29 28 27 26 25 25 25 25 24 24 23 23 23 25 25 24 24 23 23 23 23 23 24 24 24 24
22 25 26 27 28 29 30 31 31 32 33 33 31 31 30 29 29 28 28 28 27 27 26 25 25 25 25 25 24 23 23 23 24 24 25 25 25 25 25 26 25 26 26
21 22 24 26 27 28 29 30 29 30 30 31 32 31 31 30 30 30 29 28 28 28 28 26 26 26 26 25 25 25 25 25 25 24 24 25 27 27 27 27 27 27 27
21 23 25 27 28 28 29 29 29 29 29 30 30 31 31 31 31 31 30 30 30 29 28 27 26 26 26 26 26 26 27 26 26 25 25 26 27 27 28 29 29 30 30
Wind_Direction
267 266 268 256 256 254 239 233 230 224 225 225 225 224 223 223 225 228 232 232 235 238 242 244 246 247 248 255 255 261 265 269 276 282 290 296 285 285 291 298 314 323 336
267 266 267 267 259 259 250 240 233 232 228 226 225 225 225 225 227 229 231 233 234 238 241 244 246 246 245 246 253 255 264 265 269 275 283 288 281 279 285 283 297 303 312
271 268 267 268 266 257 252 248 241 235 231 225 226 226 227 228 229 232 233 235 236 239 241 243 244 245 246 246 249 255 259 265 267 275 277 285 284 280 281 284 286 292 298
273 271 270 268 269 263 257 250 246 237 238 231 226 228 230 231 232 233 236 237 239 240 241 243 244 245 246 245 247 251 254 261 264 267 272 276 280 283 280 280 283 287 287
274 273 276 272 270 271 264 255 253 245 246 241 241 232 233 234 235 236 237 238 240 242 243 245 245 245 245 245 247 248 252 257 260 263 268 273 276 280 272 278 280 283 284
274 273 280 276 279 279 272 269 260 255 248 246 246 241 235 237 239 237 238 239 241 243 244 246 247 246 247 245 246 248 248 252 256 260 264 268 269 273 274 276 278 281 285
277 276 281 283 283 283 280 274 269 259 255 249 253 247 240 242 246 242 239 241 243 244 246 247 249 250 247 250 248 249 250 249 250 254 259 264 268 268 270 272 275 278 282
276 280 286 285 284 284 280 283 274 273 262 257 253 249 250 253 256 249 246 242 245 246 248 248 249 250 249 249 250 251 251 250 250 254 257 264 267 270 266 269 273 277 283
277 279 282 292 290 284 288 287 283 277 275 270 258 258 260 261 277 259 253 246 246 249 249 249 250 252 252 248 252 254 254 255 255 254 258 262 264 264 266 269 271 273 277
281 278 279 288 289 290 288 293 284 277 271 267 268 272 273 262 281 277 263 254 251 249 252 254 250 251 251 249 251 255 257 256 257 259 258 260 262 263 259 259 267 267 274
282 279 280 280 282 288 290 290 282 277 275 275 279 276 275 277 279 283 271 261 259 257 257 256 258 254 254 251 249 255 258 260 259 259 260 260 260 260 259 258 262 262 269
281 279 277 278 276 277 283 287 282 279 276 276 274 275 277 278 282 283 280 274 273 262 260 263 261 262 260 256 253 255 257 259 261 260 260 259 258 258 258 258 260 262 266
280 279 277 277 278 277 276 277 277 275 271 272 274 272 277 279 281 288 285 283 280 271 270 269 266 266 266 261 258 257 256 258 259 259 259 259 260 261 260 261 262 263 268
279 277 276 276 278 278 278 279 278 277 274 271 272 274 277 283 285 288 286 284 280 276 272 275 276 272 270 268 264 264 260 259 261 259 260 261 262 259 259 259 260 262 263
279 278 277 276 276 277 278 279 280 283 284 278 277 274 274 277 285 287 288 286 283 279 275 276 275 277 277 275 270 267 268 268 265 263 260 259 258 261 260 260 261 263 262
278 277 278 277 276 277 277 277 281 284 291 294 293 290 290 293 293 286 284 286 286 284 280 277 278 279 280 279 276 276 278 278 271 265 264 264 258 259 259 262 260 262 262
276 278 278 279 277 277 277 277 275 281 285 289 294 295 297 296 296 296 293 291 291 283 282 283 282 282 282 282 283 280 281 285 285 279 271 266 266 266 263 262 260 262 262
276 277 278 279 279 279 278 278 278 278 278 281 285 289 294 297 298 300 298 294 287 288 280 280 280 283 283 284 285 283 284 286 285 283 282 282 277 273 268 270 265 263 259
276 276 277 278 279 279 280 281 281 279 280 281 283 283 288 291 294 299 299 290 286 286 286 284 289 287 286 288 288 287 293 293 293 294 295 294 291 286 282 278 274 270 265
275 277 278 278 279 279 280 280 281 280 280 280 280 282 286 286 285 288 290 289 288 287 287 288 290 293 293 295 295 295 296 296 296 300 303 304 303 297 292 286 284 280 281
279 278 280 281 278 280 281 280 281 281 281 280 280 281 284 284 284 285 285 285 285 286 286 286 287 290 292 293 293 293 294 295 296 296 297 297 295 293 292 287 286 284 283
282 282 282 281 281 280 279 280 279 280 280 280 281 281 281 280 281 281 281 281 282 284 285 285 285 287 290 290 291 291 291 291 293 294 293 292 290 288 287 285 285 285 285
286 286 285 284 283 282 281 280 278 278 277 280 279 280 280 279 278 278 279 280 281 282 284 285 285 286 289 290 290 290 288 289 292 292 290 290 290 289 288 286 285 286 286
289 287 287 287 286 285 284 282 281 279 277 277 278 278 279 279 279 279 279 279 280 281 281 282 283 284 285 286 289 288 288 289 290 290 290 288 287 287 286 286 286 286 286
293 291 290 290 289 287 286 285 284 282 280 279 277 277 278 278 277 278 278 278 278 278 279 280 282 282 282 284 284 284 286 288 290 290 291 289 287 286 286 286 286 286 286
297 296 293 291 290 289 288 286 285 285 284 282 281 279 279 278 277 277 276 277 277 278 279 280 280 280 282 283 284 283 284 286 287 290 290 288 287 286 285 285 285 285 285